Retour au catalogue

STARLINK-36571

ActifCommunicationsSSO
NORAD 67579·PAYLOAD·🇺🇸 United States

Lancé Jan 25, 2026 depuis Vandenberg Space Force Base

Loading…

Prochains Passages (prochaines 24 heures)

TLE

FraisSource: CelesTrak SupGP

Époque: Sep 14, 2026, 14:31 UTC

1 67579C 26016U   26257.60534722  .00069827  00000+0  21674-2 0  2570
2 67579  97.2856 316.3294 0000925 109.1513 323.7745 15.33406847    10

Suivez STARLINK-36571 en temps réel avec AllMySat

Download on the App Store